PNF2643 FZAA-FOOL

Flight info

Callsign PNF2643
Flight time 1h 16m
Altitude 40000
Route BZ UG856 NAVTO DITKA1A
Aircraft B772/H-SDE2E3FGHIJ5LORVWXY/LB1D1

Departure

Time 2026-05-04 14:43
Airport Ndjili International Airport (FZAA)

Arrival

Time 2026-05-04 15:59
Airport Libreville Leon M'ba International Airport (FOOL)
Time Latitude Longitude Altitude Speed Heading
2026-05-04 14:21 -4.38887 15.44504 1009 ft 0 kts 193°
2026-05-04 14:32 -4.38684 15.44624 1010 ft 0 kts 238°
2026-05-04 14:37 -4.38688 15.44619 1010 ft 5 kts 237°
2026-05-04 14:37 -4.38710 15.44584 1010 ft 6 kts 237°
2026-05-04 14:37 -4.38711 15.44544 1010 ft 6 kts 306°
2026-05-04 14:37 -4.38682 15.44523 1010 ft 0 kts 326°
2026-05-04 14:38 -4.38669 15.44514 1011 ft 7 kts 326°
2026-05-04 14:38 -4.38630 15.44488 1011 ft 7 kts 326°
2026-05-04 14:38 -4.38590 15.44468 1011 ft 7 kts 347°
2026-05-04 14:39 -4.38549 15.44485 1011 ft 7 kts 48°
2026-05-04 14:39 -4.38498 15.44563 1012 ft 23 kts 57°
2026-05-04 14:39 -4.38407 15.44706 1010 ft 24 kts 57°
2026-05-04 14:40 -4.38221 15.44989 1009 ft 24 kts 57°
2026-05-04 14:40 -4.38129 15.45132 1010 ft 24 kts 57°
2026-05-04 14:40 -4.38038 15.45274 1010 ft 24 kts 57°
2026-05-04 14:40 -4.37946 15.45417 1012 ft 24 kts 57°
2026-05-04 14:41 -4.37858 15.45552 1011 ft 15 kts 57°
2026-05-04 14:41 -4.37829 15.45651 1011 ft 15 kts 91°
2026-05-04 14:41 -4.37746 15.45699 1011 ft 8 kts 252°
2026-05-04 14:42 -4.37786 15.45663 1011 ft 7 kts 234°
2026-05-04 14:42 -4.37973 15.45376 1011 ft 94 kts 237°
2026-05-04 14:42 -4.38477 15.44596 1068 ft 166 kts 237°
2026-05-04 14:43 -4.39097 15.43626 1960 ft 164 kts 238°
2026-05-04 14:43 -4.39695 15.42668 2929 ft 166 kts 238°
2026-05-04 14:43 -4.40359 15.41627 3456 ft 194 kts 237°
2026-05-04 14:43 -4.41179 15.40387 3723 ft 233 kts 237°
2026-05-04 14:44 -4.42144 15.38925 4104 ft 267 kts 237°
2026-05-04 14:44 -4.43191 15.37327 4972 ft 281 kts 236°
2026-05-04 14:44 -4.44270 15.35675 6060 ft 285 kts 236°
2026-05-04 14:44 -4.45368 15.33994 7050 ft 292 kts 236°
2026-05-04 14:45 -4.46485 15.32281 8074 ft 296 kts 237°
2026-05-04 14:45 -4.47623 15.30534 9078 ft 301 kts 237°
2026-05-04 14:45 -4.48777 15.28763 10148 ft 304 kts 237°
2026-05-04 14:45 -4.49960 15.26946 10805 ft 324 kts 237°
2026-05-04 14:46 -4.51193 15.25008 11557 ft 330 kts 242°
2026-05-04 14:46 -4.51844 15.22808 12336 ft 339 kts 269°
2026-05-04 14:46 -4.51471 15.20440 13281 ft 344 kts 294°
2026-05-04 14:46 -4.50227 15.18442 14257 ft 345 kts 315°
2026-05-04 14:47 -4.48456 15.16821 15076 ft 348 kts 321°
2026-05-04 14:47 -4.46371 15.15581 15758 ft 355 kts 344°
2026-05-04 14:47 -4.43928 15.15402 16796 ft 355 kts 10°
2026-05-04 14:47 -4.41578 15.16189 17699 ft 359 kts 26°
2026-05-04 14:48 -4.39316 15.17327 18452 ft 368 kts 28°
2026-05-04 14:48 -4.37039 15.18536 19281 ft 372 kts 28°
2026-05-04 14:48 -4.34731 15.19753 20176 ft 375 kts 28°
2026-05-04 14:48 -4.32394 15.20964 21045 ft 381 kts 28°
2026-05-04 14:49 -4.30018 15.22143 21858 ft 382 kts 23°
2026-05-04 14:49 -4.27390 15.22693 22548 ft 394 kts
2026-05-04 14:49 -4.24662 15.22265 23354 ft 403 kts 341°
2026-05-04 14:49 -4.22173 15.20943 24102 ft 409 kts 323°
2026-05-04 14:50 -4.20183 15.18903 24787 ft 411 kts 310°
2026-05-04 14:50 -4.18358 15.16652 25361 ft 420 kts 309°
2026-05-04 14:50 -4.16538 15.14344 26095 ft 424 kts 309°
2026-05-04 14:50 -4.14710 15.12012 26891 ft 427 kts 309°
2026-05-04 14:51 -4.12883 15.09696 27630 ft 431 kts 309°
2026-05-04 14:51 -4.11007 15.07336 28324 ft 436 kts 310°
2026-05-04 14:51 -4.09096 15.04949 28988 ft 442 kts 310°
2026-05-04 14:51 -4.07155 15.02540 29644 ft 446 kts 310°
2026-05-04 14:52 -4.05193 15.00111 30240 ft 451 kts 310°
2026-05-04 14:52 -4.03212 14.97664 30793 ft 454 kts 310°
2026-05-04 14:52 -4.01213 14.95196 31339 ft 458 kts 310°
2026-05-04 14:52 -3.99201 14.92712 31863 ft 461 kts 310°
2026-05-04 14:53 -3.97172 14.90209 32357 ft 464 kts 310°
2026-05-04 14:53 -3.95127 14.87685 32826 ft 468 kts 310°
2026-05-04 14:53 -3.93069 14.85144 33296 ft 471 kts 310°
2026-05-04 14:53 -3.90992 14.82580 33729 ft 475 kts 310°
2026-05-04 14:54 -3.88904 14.80004 34123 ft 478 kts 310°
2026-05-04 14:54 -3.86795 14.77401 34522 ft 481 kts 310°
2026-05-04 14:54 -3.84680 14.74791 34913 ft 483 kts 310°
2026-05-04 14:54 -3.82560 14.72176 35285 ft 485 kts 310°
2026-05-04 14:55 -3.80459 14.69582 35756 ft 485 kts 309°
2026-05-04 14:55 -3.78340 14.66968 36332 ft 481 kts 309°
2026-05-04 14:55 -3.76238 14.64375 36920 ft 479 kts 310°
2026-05-04 14:55 -3.74140 14.61787 37501 ft 476 kts 309°
2026-05-04 14:56 -3.72061 14.59223 38099 ft 473 kts 310°
2026-05-04 14:56 -3.69999 14.56679 38677 ft 469 kts 309°
2026-05-04 14:56 -3.67945 14.54145 39079 ft 469 kts 309°
2026-05-04 14:56 -3.65878 14.51596 39305 ft 473 kts 309°
2026-05-04 14:57 -3.63803 14.49039 39544 ft 475 kts 309°
2026-05-04 14:57 -3.61712 14.46462 39774 ft 477 kts 309°
2026-05-04 14:57 -3.57490 14.41257 39895 ft 479 kts 309°
2026-05-04 14:58 -3.53349 14.36153 39914 ft 468 kts 309°
2026-05-04 14:58 -3.49259 14.31112 39941 ft 467 kts 309°
2026-05-04 14:59 -3.45183 14.26090 39928 ft 468 kts 309°
2026-05-04 15:00 -3.39018 14.18496 39943 ft 469 kts 309°
2026-05-04 15:00 -3.34901 14.13425 39921 ft 469 kts 309°
2026-05-04 15:01 -3.28714 14.05805 39924 ft 470 kts 309°
2026-05-04 15:01 -3.24591 14.00729 39922 ft 470 kts 309°
2026-05-04 15:02 -3.20469 13.95655 39919 ft 470 kts 309°
2026-05-04 15:02 -3.16347 13.90581 39920 ft 470 kts 310°
2026-05-04 15:03 -3.12247 13.85535 39934 ft 470 kts 310°
2026-05-04 15:03 -3.08096 13.80427 39933 ft 470 kts 310°
2026-05-04 15:04 -3.03988 13.75374 39916 ft 471 kts 310°
2026-05-04 15:04 -2.99854 13.70287 39939 ft 471 kts 310°
2026-05-04 15:05 -2.95710 13.65191 39918 ft 472 kts 310°
2026-05-04 15:05 -2.91565 13.60093 39915 ft 472 kts 310°
2026-05-04 15:06 -2.87424 13.55000 39913 ft 472 kts 310°
2026-05-04 15:07 -2.81200 13.47348 39911 ft 473 kts 310°
2026-05-04 15:07 -2.77053 13.42249 39914 ft 472 kts 310°
2026-05-04 15:08 -2.72907 13.37152 39912 ft 472 kts 310°
2026-05-04 15:08 -2.68763 13.32059 39932 ft 471 kts 310°
2026-05-04 15:09 -2.64624 13.26972 39910 ft 471 kts 310°
2026-05-04 15:09 -2.60515 13.21922 39911 ft 471 kts 310°
2026-05-04 15:10 -2.54323 13.14314 39915 ft 470 kts 310°
2026-05-04 15:11 -2.48127 13.06701 39929 ft 470 kts 310°
2026-05-04 15:11 -2.44010 13.01631 39919 ft 470 kts 309°
2026-05-04 15:12 -2.39932 12.96571 39914 ft 470 kts 309°
2026-05-04 15:12 -2.36505 12.92314 39919 ft 470 kts 309°
2026-05-04 15:13 -2.32400 12.87219 39917 ft 470 kts 309°
2026-05-04 15:13 -2.28293 12.82126 39918 ft 471 kts 309°
2026-05-04 15:14 -2.24198 12.77048 39920 ft 472 kts 309°
2026-05-04 15:14 -2.20078 12.71940 39922 ft 472 kts 310°
2026-05-04 15:15 -2.15939 12.66810 39923 ft 473 kts 310°
2026-05-04 15:15 -2.11821 12.61704 39918 ft 473 kts 310°
2026-05-04 15:16 -2.05628 12.54028 39923 ft 473 kts 310°
2026-05-04 15:17 -1.99396 12.46305 39922 ft 474 kts 310°
2026-05-04 15:17 -1.93220 12.38652 39928 ft 473 kts 310°
2026-05-04 15:18 -1.89081 12.33523 39926 ft 473 kts 310°
2026-05-04 15:19 -1.82881 12.25841 39926 ft 473 kts 310°
2026-05-04 15:19 -1.76670 12.18146 39922 ft 474 kts 310°
2026-05-04 15:20 -1.72541 12.13030 39925 ft 474 kts 310°
2026-05-04 15:20 -1.68389 12.07891 39925 ft 474 kts 310°
2026-05-04 15:21 -1.64246 12.02774 39924 ft 475 kts 310°
2026-05-04 15:22 -1.58012 11.95071 39928 ft 474 kts 310°
2026-05-04 15:22 -1.51799 11.87392 39920 ft 474 kts 310°
2026-05-04 15:23 -1.47658 11.82272 39920 ft 474 kts 310°
2026-05-04 15:23 -1.43513 11.77149 39921 ft 473 kts 310°
2026-05-04 15:24 -1.35245 11.66926 39923 ft 472 kts 310°
2026-05-04 15:25 -1.31119 11.61816 39918 ft 472 kts 310°
2026-05-04 15:26 -1.24923 11.54144 39919 ft 472 kts 310°
2026-05-04 15:26 -1.18759 11.46511 39916 ft 473 kts 310°
2026-05-04 15:27 -1.12553 11.38829 39912 ft 473 kts 310°
2026-05-04 15:28 -1.06345 11.31143 39918 ft 474 kts 310°
2026-05-04 15:29 -1.00153 11.23478 39913 ft 474 kts 310°
2026-05-04 15:30 -0.85663 11.05543 39908 ft 473 kts 310°
2026-05-04 15:31 -0.79449 10.97852 39858 ft 474 kts 310°
2026-05-04 15:32 -0.73191 10.90105 38181 ft 478 kts 310°
2026-05-04 15:32 -0.69048 10.84979 37208 ft 470 kts 310°
2026-05-04 15:33 -0.64980 10.79947 36312 ft 462 kts 310°
2026-05-04 15:34 -0.58998 10.72546 34966 ft 452 kts 310°
2026-05-04 15:34 -0.57026 10.70106 34499 ft 450 kts 310°
2026-05-04 15:34 -0.53106 10.65256 33520 ft 446 kts 310°
2026-05-04 15:35 -0.49253 10.60488 32563 ft 440 kts 310°
2026-05-04 15:35 -0.47339 10.58119 32108 ft 437 kts 310°
2026-05-04 15:35 -0.45433 10.55760 31659 ft 434 kts 310°
2026-05-04 15:36 -0.41660 10.51092 30771 ft 429 kts 310°
2026-05-04 15:36 -0.39790 10.48778 30326 ft 427 kts 310°
2026-05-04 15:36 -0.37926 10.46472 29869 ft 425 kts 310°
2026-05-04 15:37 -0.36074 10.44179 29351 ft 422 kts 310°
2026-05-04 15:37 -0.34239 10.41908 28849 ft 419 kts 310°
2026-05-04 15:37 -0.32415 10.39651 28378 ft 415 kts 310°
2026-05-04 15:37 -0.30611 10.37419 27904 ft 411 kts 310°
2026-05-04 15:38 -0.28821 10.35205 27439 ft 408 kts 310°
2026-05-04 15:38 -0.27045 10.33009 26991 ft 404 kts 310°
2026-05-04 15:38 -0.25289 10.30837 26546 ft 401 kts 310°
2026-05-04 15:38 -0.23535 10.28669 26100 ft 399 kts 310°
2026-05-04 15:39 -0.21798 10.26521 25655 ft 396 kts 310°
2026-05-04 15:39 -0.20072 10.24386 25209 ft 394 kts 310°
2026-05-04 15:39 -0.16640 10.20143 24327 ft 391 kts 310°
2026-05-04 15:40 -0.14937 10.18036 23893 ft 389 kts 310°
2026-05-04 15:40 -0.13239 10.15935 23458 ft 388 kts 310°
2026-05-04 15:40 -0.11551 10.13847 22957 ft 386 kts 310°
2026-05-04 15:40 -0.09870 10.11768 22489 ft 383 kts 310°
2026-05-04 15:41 -0.08202 10.09704 22059 ft 380 kts 310°
2026-05-04 15:41 -0.06549 10.07660 21628 ft 377 kts 310°
2026-05-04 15:41 -0.04907 10.05629 21190 ft 374 kts 310°
2026-05-04 15:41 -0.03273 10.03608 20771 ft 372 kts 310°
2026-05-04 15:42 -0.01676 10.01632 20357 ft 369 kts 310°
2026-05-04 15:42 -0.00063 9.99638 19941 ft 367 kts 310°
2026-05-04 15:42 0.01538 9.97657 19507 ft 366 kts 310°
2026-05-04 15:42 0.03132 9.95685 19077 ft 364 kts 310°
2026-05-04 15:43 0.04726 9.93713 18651 ft 363 kts 310°
2026-05-04 15:43 0.06309 9.91755 18216 ft 362 kts 310°
2026-05-04 15:43 0.07890 9.89799 17745 ft 361 kts 310°
2026-05-04 15:43 0.09462 9.87855 17276 ft 359 kts 310°
2026-05-04 15:44 0.11021 9.85925 16854 ft 356 kts 310°
2026-05-04 15:44 0.12574 9.84004 16435 ft 354 kts 310°
2026-05-04 15:44 0.14115 9.82097 15997 ft 351 kts 310°
2026-05-04 15:44 0.15645 9.80204 15581 ft 349 kts 310°
2026-05-04 15:45 0.17170 9.78318 15147 ft 347 kts 310°
2026-05-04 15:45 0.18686 9.76443 14736 ft 346 kts 311°
2026-05-04 15:45 0.20175 9.74601 14310 ft 345 kts 311°
2026-05-04 15:45 0.21685 9.72733 13877 ft 344 kts 311°
2026-05-04 15:46 0.23187 9.70875 13421 ft 344 kts 311°
2026-05-04 15:46 0.24688 9.69019 12960 ft 342 kts 311°
2026-05-04 15:46 0.26179 9.67172 12522 ft 340 kts 311°
2026-05-04 15:46 0.27663 9.65336 12095 ft 338 kts 311°
2026-05-04 15:47 0.29137 9.63512 11682 ft 336 kts 311°
2026-05-04 15:47 0.30603 9.61699 11254 ft 334 kts 311°
2026-05-04 15:47 0.32121 9.59986 10825 ft 324 kts 323°
2026-05-04 15:47 0.34008 9.58905 10431 ft 312 kts 343°
2026-05-04 15:48 0.36049 9.58209 10073 ft 308 kts 345°
2026-05-04 15:48 0.38066 9.57516 9814 ft 303 kts 345°
2026-05-04 15:48 0.41984 9.57472 8811 ft 280 kts 24°
2026-05-04 15:49 0.43854 9.58087 8352 ft 284 kts 18°
2026-05-04 15:49 0.45769 9.58448 8094 ft 281 kts 10°
2026-05-04 15:49 0.47704 9.58565 7897 ft 276 kts
2026-05-04 15:49 0.49611 9.58471 7635 ft 274 kts 357°
2026-05-04 15:50 0.51502 9.58193 7314 ft 275 kts 352°
2026-05-04 15:50 0.53357 9.57731 7006 ft 275 kts 346°
2026-05-04 15:50 0.55157 9.57079 6703 ft 275 kts 339°
2026-05-04 15:50 0.56877 9.56242 6425 ft 274 kts 333°
2026-05-04 15:51 0.58502 9.55247 6127 ft 273 kts 328°
2026-05-04 15:51 0.60031 9.54134 5789 ft 272 kts 322°
2026-05-04 15:51 0.61423 9.52856 5461 ft 272 kts 315°
2026-05-04 15:51 0.62643 9.51419 5179 ft 271 kts 308°
2026-05-04 15:52 0.63689 9.49863 4903 ft 269 kts 302°
2026-05-04 15:52 0.64558 9.48239 4630 ft 267 kts 296°
2026-05-04 15:52 0.65262 9.46553 4520 ft 258 kts 291°
2026-05-04 15:52 0.65784 9.44875 4428 ft 248 kts 285°
2026-05-04 15:53 0.66133 9.43218 4321 ft 240 kts 280°
2026-05-04 15:53 0.66329 9.41582 4159 ft 236 kts 275°
2026-05-04 15:53 0.66378 9.39954 3976 ft 232 kts 269°
2026-05-04 15:53 0.66286 9.38351 3758 ft 231 kts 265°
2026-05-04 15:54 0.66075 9.36767 3538 ft 229 kts 260°
2026-05-04 15:54 0.65686 9.35239 3266 ft 225 kts 244°
2026-05-04 15:54 0.64627 9.34110 2970 ft 225 kts 209°
2026-05-04 15:54 0.63190 9.33591 2740 ft 216 kts 190°
2026-05-04 15:55 0.61703 9.33715 2402 ft 215 kts 162°
2026-05-04 15:55 0.60306 9.34240 2186 ft 212 kts 157°
2026-05-04 15:55 0.58994 9.34842 2090 ft 203 kts 155°
2026-05-04 15:55 0.57771 9.35438 2070 ft 195 kts 154°
2026-05-04 15:56 0.56558 9.36031 2036 ft 191 kts 154°
2026-05-04 15:56 0.55373 9.36607 1781 ft 184 kts 154°
2026-05-04 15:56 0.54277 9.37141 1559 ft 168 kts 155°
2026-05-04 15:56 0.53256 9.37641 1264 ft 157 kts 155°
2026-05-04 15:57 0.52338 9.38090 1108 ft 140 kts 155°
2026-05-04 15:57 0.51454 9.38516 993 ft 140 kts 155°
2026-05-04 15:57 0.50584 9.38934 816 ft 137 kts 155°
2026-05-04 15:57 0.49742 9.39344 652 ft 134 kts 155°
2026-05-04 15:58 0.48901 9.39753 452 ft 133 kts 154°
2026-05-04 15:58 0.48079 9.40157 295 ft 132 kts 154°
2026-05-04 15:58 0.47242 9.40561 109 ft 135 kts 154°
2026-05-04 15:58 0.46417 9.40958 44 ft 123 kts 154°
2026-05-04 15:59 0.45760 9.41276 40 ft 88 kts 154°
2026-05-04 15:59 0.45317 9.41491 42 ft 53 kts 154°
2026-05-04 15:59 0.45039 9.41626 43 ft 41 kts 154°
2026-05-04 15:59 0.44845 9.41721 42 ft 14 kts 154°
2026-05-04 16:00 0.44785 9.41750 43 ft 14 kts 154°
2026-05-04 16:00 0.44692 9.41776 41 ft 14 kts 193°
2026-05-04 16:00 0.44652 9.41771 41 ft 8 kts 172°
2026-05-04 16:00 0.44644 9.41788 41 ft 3 kts 79°
2026-05-04 16:01 0.44682 9.41796 41 ft 10 kts 346°
2026-05-04 16:01 0.44749 9.41767 42 ft 10 kts 335°
2026-05-04 16:01 0.44815 9.41736 43 ft 10 kts 334°
2026-05-04 16:01 0.44881 9.41704 44 ft 12 kts 334°
2026-05-04 16:02 0.44989 9.41651 43 ft 20 kts 333°
2026-05-04 16:02 0.45114 9.41588 44 ft 20 kts 333°
2026-05-04 16:02 0.45363 9.41467 41 ft 11 kts 334°
2026-05-04 16:03 0.45414 9.41416 42 ft 11 kts 271°
2026-05-04 16:03 0.45400 9.41340 42 ft 11 kts 285°
2026-05-04 16:03 0.45457 9.41297 41 ft 0 kts 335°
2026-05-04 16:03 0.45484 9.41279 40 ft 9 kts 317°
2026-05-04 16:04 0.45540 9.41251 38 ft 10 kts 353°
2026-05-04 16:04 0.45573 9.41212 38 ft 4 kts 250°
2026-05-04 16:04 0.45561 9.41190 38 ft 4 kts 242°
2026-05-04 16:05 0.45551 9.41172 38 ft 0 kts 242°
2026-05-04 16:05 0.45550 9.41169 38 ft 0 kts 242°